| time (UTC) | temp F | wind direction | speed knots | gust knots | rain 1hr in | rain 24hr in | rain mn in | humidity % | barometer mb |
| 20260503211501 | 58 | 225 | 20.0 | 20.9 | 0.00 | 0.00 | 0.00 | 36 | 1010.9 |
| 20260503210959 | 58 | 225 | 20.0 | 20.0 | 0.00 | 0.00 | 0.00 | 37 | 1010.8 |
| 20260503210459 | 59 | 225 | 20.0 | 20.0 | 0.00 | 0.00 | 0.00 | 35 | 1010.8 |
| 20260503210000 | 59 | 225 | 19.1 | 20.0 | 0.00 | 0.00 | 0.00 | 35 | 1010.8 |
| 20260503205459 | 59 | 225 | 18.2 | 20.0 | 0.00 | 0.00 | 0.00 | 35 | 1010.8 |
| 20260503205000 | 60 | 222 | 19.1 | 20.0 | 0.00 | 0.00 | 0.00 | 35 | 1010.9 |
| 20260503203500 | 60 | 227 | 18.2 | 19.1 | 0.00 | 0.00 | 0.00 | 35 | 1011.0 |
| 20260503202959 | 60 | 227 | 17.4 | 19.1 | 0.00 | 0.00 | 0.00 | 36 | 1011.2 |
| 20260503202500 | 60 | 224 | 16.5 | 18.2 | 0.00 | 0.00 | 0.00 | 37 | 1011.1 |
| 20260503202000 | 59 | 224 | 17.4 | 20.0 | 0.00 | 0.00 | 0.00 | 37 | 1011.1 |
| 20260503201000 | 59 | 222 | 19.1 | 21.7 | 0.00 | 0.00 | 0.00 | 33 | 1011.2 |
| 20260503200500 | 59 | 225 | 19.1 | 20.0 | 0.00 | 0.00 | 0.00 | 35 | 1011.3 |
| 20260503200000 | 59 | 225 | 18.2 | 20.0 | 0.00 | 0.00 | 0.00 | 35 | 1011.3 |
| 20260503195500 | 59 | 225 | 18.2 | 19.1 | 0.00 | 0.00 | 0.00 | 37 | 1011.4 |
| 20260503195000 | 59 | 225 | 18.2 | 20.0 | 0.00 | 0.00 | 0.00 | 36 | 1011.4 |
| 20260503194500 | 59 | 225 | 18.2 | 20.0 | 0.00 | 0.00 | 0.00 | 35 | 1011.5 |
| 20260503193500 | 59 | 224 | 17.4 | 18.2 | 0.00 | 0.00 | 0.00 | 36 | 1011.6 |
| 20260503193000 | 59 | 224 | 15.6 | 18.2 | 0.00 | 0.00 | 0.00 | 36 | 1011.7 |
| 20260503192459 | 59 | 225 | 15.6 | 17.4 | 0.00 | 0.00 | 0.00 | 36 | 1011.8 |
| 20260503192000 | 59 | 225 | 15.6 | 17.4 | 0.00 | 0.00 | 0.00 | 36 | 1011.8 |
| 20260503191501 | 59 | 224 | 15.6 | 16.5 | 0.00 | 0.00 | 0.00 | 37 | 1011.9 |
| 20260503191000 | 59 | 224 | 15.6 | 16.5 | 0.00 | 0.00 | 0.00 | 38 | 1011.9 |
| 20260503190501 | 58 | 227 | 15.6 | 16.5 | 0.00 | 0.00 | 0.00 | 40 | 1012.1 |
| 20260503190000 | 58 | 226 | 14.8 | 16.5 | 0.00 | 0.00 | 0.00 | 40 | 1012.1 |
| 20260503185500 | 58 | 222 | 13.0 | 14.8 | 0.00 | 0.00 | 0.00 | 42 | 1012.1 |
| 20260503185000 | 57 | 217 | 11.3 | 13.0 | 0.00 | 0.00 | 0.00 | 44 | 1012.2 |
| 20260503184500 | 58 | 213 | 11.3 | 13.0 | 0.00 | 0.00 | 0.00 | 44 | 1012.5 |
| 20260503183959 | 58 | 214 | 11.3 | 13.0 | 0.00 | 0.00 | 0.00 | 42 | 1012.4 |
| 20260503183500 | 58 | 217 | 10.4 | 11.3 | 0.00 | 0.00 | 0.00 | 45 | 1012.6 |
| 20260503182959 | 58 | 218 | 11.3 | 11.3 | 0.00 | 0.00 | 0.00 | 44 | 1012.6 |
| 20260503182500 | 58 | 219 | 11.3 | 13.0 | 0.00 | 0.00 | 0.00 | 43 | 1012.8 |
| 20260503181959 | 58 | 224 | 12.2 | 13.0 | 0.00 | 0.00 | 0.00 | 42 | 1012.9 |
| 20260503181501 | 58 | 224 | 13.0 | 13.0 | 0.00 | 0.00 | 0.00 | 42 | 1013.0 |
| 20260503180959 | 58 | 224 | 13.0 | 13.0 | 0.00 | 0.00 | 0.00 | 42 | 1012.9 |
| 20260503180000 | 58 | 225 | 13.9 | 14.8 | 0.00 | 0.00 | 0.00 | 39 | 1013.0 |
| 20260503175500 | 58 | 225 | 13.9 | 15.6 | 0.00 | 0.00 | 0.00 | 40 | 1013.2 |
| 20260503175001 | 58 | 225 | 14.8 | 16.5 | 0.00 | 0.00 | 0.00 | 40 | 1013.2 |
| 20260503174459 | 57 | 222 | 15.6 | 16.5 | 0.00 | 0.00 | 0.00 | 41 | 1013.2 |
| 20260503173959 | 56 | 223 | 15.6 | 17.4 | 0.00 | 0.00 | 0.00 | 41 | 1013.3 |
| 20260503173500 | 56 | 225 | 15.6 | 18.2 | 0.00 | 0.00 | 0.00 | 40 | 1013.4 |
| 20260503173000 | 56 | 222 | 15.6 | 18.2 | 0.00 | 0.00 | 0.00 | 39 | 1013.6 |
| 20260503172500 | 56 | 219 | 16.5 | 18.2 | 0.00 | 0.00 | 0.00 | 40 | 1013.6 |
| 20260503172001 | 55 | 222 | 17.4 | 19.1 | 0.00 | 0.00 | 0.00 | 39 | 1013.4 |
| 20260503171500 | 55 | 225 | 17.4 | 19.1 | 0.00 | 0.00 | 0.00 | 39 | 1013.5 |
| 20260503170959 | 55 | 225 | 16.5 | 18.2 | 0.00 | 0.00 | 0.00 | 39 | 1013.6 |
| 20260503170500 | 56 | 225 | 16.5 | 17.4 | 0.00 | 0.00 | 0.00 | 37 | 1013.7 |
| 20260503150459 | 52 | 225 | 20.9 | 22.6 | 0.00 | 0.00 | 0.00 | 33 | 1014.7 |
| 20260503130959 | 50 | 248 | 22.6 | 23.5 | 0.00 | 0.00 | 0.00 | 37 | 1014.9 |
| 20260503130459 | 51 | 247 | 22.6 | 23.5 | 0.00 | 0.00 | 0.00 | 35 | 1015.0 |
| 20260503110459 | 46 | 246 | 7.8 | 10.4 | 0.00 | 0.00 | 0.00 | 30 | 1015.3 |
| 20260503090459 | 44 | 238 | 5.2 | 6.1 | 0.00 | 0.00 | 0.00 | 30 | 1015.3 |
| 20260503081500 | 44 | 259 | 4.3 | 6.1 | 0.00 | 0.00 | 0.00 | 30 | 1015.5 |
| 20260503080959 | 44 | 233 | 5.2 | 6.1 | 0.00 | 0.00 | 0.00 | 30 | 1015.6 |
| 20260503080459 | 44 | 248 | 5.2 | 6.1 | 0.00 | 0.00 | 0.00 | 30 | 1015.6 |
| 20260503072500 | 44 | 292 | 4.3 | 6.1 | 0.00 | 0.00 | 0.00 | 30 | 1015.5 |
| 20260503071959 | 44 | 286 | 4.3 | 6.1 | 0.00 | 0.00 | 0.00 | 30 | 1015.5 |
| 20260503070959 | 44 | 314 | 5.2 | 6.1 | 0.00 | 0.00 | 0.00 | 30 | 1015.5 |
| 20260503053958 | 45 | 283 | 5.2 | 7.0 | 0.00 | 0.00 | 0.00 | 30 | 1016.2 |
| 20260503053459 | 45 | 292 | 4.3 | 6.1 | 0.00 | 0.00 | 0.00 | 30 | 1016.1 |
| 20260503052958 | 45 | 291 | 4.3 | 5.2 | 0.00 | 0.00 | 0.00 | 30 | 1016.1 |
| 20260503052500 | 45 | 305 | 4.3 | 5.2 | 0.00 | 0.00 | 0.00 | 30 | 1016.2 |
| 20260503051959 | 45 | 297 | 4.3 | 5.2 | 0.00 | 0.00 | 0.00 | 30 | 1016.2 |
| 20260503051459 | 45 | 290 | 4.3 | 5.2 | 0.00 | 0.00 | 0.00 | 30 | 1016.3 |
| 20260503050958 | 45 | 307 | 5.2 | 5.2 | 0.00 | 0.00 | 0.00 | 30 | 1016.2 |
| 20260503050458 | 45 | 307 | 5.2 | 7.0 | 0.00 | 0.00 | 0.00 | 30 | 1016.1 |
| 20260503045959 | 45 | 279 | 4.3 | 7.0 | 0.00 | 0.00 | 0.00 | 30 | 1016.1 |
| 20260503045458 | 44 | 297 | 4.3 | 6.1 | 0.00 | 0.00 | 0.00 | 30 | 1016.3 |
| 20260503044959 | 45 | 309 | 4.3 | 6.1 | 0.00 | 0.00 | 0.00 | 30 | 1016.3 |
| 20260503044458 | 45 | 294 | 4.3 | 5.2 | 0.00 | 0.00 | 0.00 | 30 | 1016.3 |
| 20260503043959 | 44 | 288 | 4.3 | 5.2 | 0.00 | 0.00 | 0.00 | 30 | 1016.3 |
| 20260503043458 | 44 | 285 | 3.5 | 5.2 | 0.00 | 0.00 | 0.00 | 30 | 1016.3 |
| 20260503042958 | 44 | 284 | 3.5 | 5.2 | 0.00 | 0.00 | 0.00 | 30 | 1016.3 |
| 20260503042458 | 44 | 292 | 3.5 | 5.2 | 0.00 | 0.00 | 0.00 | 30 | 1016.3 |
| 20260503041959 | 44 | 297 | 3.5 | 4.3 | 0.00 | 0.00 | 0.00 | 30 | 1016.3 |
| 20260503041458 | 44 | 300 | 2.6 | 3.5 | 0.00 | 0.00 | 0.00 | 30 | 1016.2 |
| 20260503040958 | 44 | 258 | 2.6 | 3.5 | 0.00 | 0.00 | 0.00 | 30 | 1016.3 |
| 20260503040458 | 44 | 263 | 2.6 | 3.5 | 0.00 | 0.00 | 0.00 | 30 | 1016.3 |
| 20260503035959 | 44 | 279 | 2.6 | 3.5 | 0.00 | 0.00 | 0.00 | 30 | 1016.4 |
| 20260503035459 | 44 | 274 | 2.6 | 3.5 | 0.00 | 0.00 | 0.00 | 30 | 1016.4 |
| 20260503033958 | 44 | 304 | 2.6 | 3.5 | 0.00 | 0.00 | 0.00 | 30 | 1016.6 |
| 20260503033459 | 44 | 293 | 2.6 | 3.5 | 0.00 | 0.00 | 0.00 | 30 | 1016.6 |
| 20260503032959 | 44 | 283 | 3.5 | 3.5 | 0.00 | 0.00 | 0.00 | 30 | 1016.7 |
| 20260503032458 | 44 | 290 | 2.6 | 3.5 | 0.00 | 0.00 | 0.00 | 30 | 1016.6 |
| 20260503031959 | 44 | 295 | 2.6 | 3.5 | 0.00 | 0.00 | 0.00 | 30 | 1016.6 |
| 20260503031458 | 44 | 285 | 2.6 | 3.5 | 0.00 | 0.00 | 0.00 | 30 | 1016.7 |
| 20260503030959 | 44 | 260 | 2.6 | 3.5 | 0.00 | 0.00 | 0.00 | 30 | 1016.6 |
| 20260503030458 | 44 | 268 | 2.6 | 3.5 | 0.00 | 0.00 | 0.00 | 30 | 1016.7 |
| 20260503025959 | 44 | 290 | 3.5 | 3.5 | 0.00 | 0.00 | 0.00 | 30 | 1016.8 |
| 20260503024958 | 44 | 305 | 3.5 | 4.3 | 0.00 | 0.00 | 0.00 | 30 | 1016.7 |
| 20260503024459 | 44 | 278 | 3.5 | 3.5 | 0.00 | 0.00 | 0.00 | 30 | 1016.8 |
| 20260503023959 | 44 | 277 | 3.5 | 3.5 | 0.00 | 0.00 | 0.00 | 30 | 1016.8 |
| 20260503022459 | 44 | 277 | 2.6 | 3.5 | 0.00 | 0.01 | 0.00 | 30 | 1017.0 |
| 20260503021958 | 44 | 294 | 2.6 | 3.5 | 0.00 | 0.01 | 0.00 | 30 | 1016.8 |
| 20260503021458 | 44 | 322 | 2.6 | 3.5 | 0.00 | 0.01 | 0.00 | 30 | 1016.8 |
| 20260503020959 | 44 | 346 | 3.5 | 3.5 | 0.00 | 0.01 | 0.00 | 30 | 1016.8 |
| 20260503020458 | 44 | 343 | 2.6 | 3.5 | 0.00 | 0.01 | 0.00 | 30 | 1016.8 |
| 20260503015459 | 44 | 286 | 2.6 | 3.5 | 0.00 | 0.01 | 0.00 | 30 | 1016.7 |
| 20260503014958 | 45 | 295 | 2.6 | 3.5 | 0.00 | 0.01 | 0.00 | 30 | 1016.7 |
| 20260503014459 | 45 | 294 | 2.6 | 3.5 | 0.00 | 0.01 | 0.00 | 30 | 1016.8 |
| 20260503013958 | 45 | 294 | 2.6 | 3.5 | 0.00 | 0.01 | 0.00 | 30 | 1016.7 |
| 20260503013458 | 45 | 295 | 2.6 | 3.5 | 0.00 | 0.01 | 0.00 | 30 | 1016.8 |
| 20260503012958 | 45 | 294 | 1.7 | 3.5 | 0.00 | 0.01 | 0.00 | 30 | 1016.7 |
| 20260503012459 | 46 | 276 | 1.7 | 2.6 | 0.00 | 0.01 | 0.00 | 30 | 1016.6 |
| 20260503012000 | 46 | 246 | 1.7 | 2.6 | 0.00 | 0.01 | 0.00 | 30 | 1016.7 |
| 20260503011459 | 46 | 270 | 1.7 | 1.7 | 0.00 | 0.01 | 0.00 | 30 | 1016.6 |
| 20260503010958 | 46 | 307 | 1.7 | 1.7 | 0.00 | 0.01 | 0.00 | 30 | 1016.6 |
| 20260503010459 | 46 | 301 | 1.7 | 1.7 | 0.00 | 0.01 | 0.00 | 30 | 1016.7 |
| 20260503005458 | 46 | 270 | 0.9 | 1.7 | 0.00 | 0.01 | 0.00 | 30 | 1016.6 |
| 20260503004959 | 46 | 265 | 1.7 | 3.5 | 0.00 | 0.01 | 0.00 | 30 | 1016.5 |
| 20260503003958 | 46 | 273 | 2.6 | 3.5 | 0.00 | 0.01 | 0.00 | 30 | 1016.6 |
| 20260503003458 | 46 | 289 | 2.6 | 3.5 | 0.00 | 0.01 | 0.00 | 30 | 1016.5 |
| 20260503002959 | 46 | 272 | 1.7 | 3.5 | 0.00 | 0.01 | 0.00 | 30 | 1016.4 |
| 20260503002459 | 46 | 253 | 2.6 | 3.5 | 0.00 | 0.01 | 0.00 | 30 | 1016.6 |
| 20260503001958 | 46 | 269 | 2.6 | 3.5 | 0.00 | 0.01 | 0.00 | 30 | 1016.4 |
| 20260503001458 | 47 | 289 | 2.6 | 3.5 | 0.00 | 0.01 | 0.00 | 30 | 1016.4 |
| 20260503000958 | 47 | 304 | 2.6 | 3.5 | 0.00 | 0.01 | 0.00 | 30 | 1016.4 |
| 20260502235958 | 47 | 299 | 2.6 | 3.5 | 0.00 | 0.01 | 0.00 | 30 | 1016.4 |
| 20260502235458 | 47 | 304 | 2.6 | 4.3 | 0.00 | 0.01 | 0.00 | 30 | 1016.5 |
| 20260502234959 | 47 | 299 | 2.6 | 4.3 | 0.00 | 0.01 | 0.00 | 30 | 1016.3 |
| 20260502234458 | 47 | 288 | 2.6 | 4.3 | 0.00 | 0.01 | 0.00 | 30 | 1016.3 |
| 20260502233959 | 47 | 289 | 3.5 | 6.1 | 0.00 | 0.01 | 0.00 | 30 | 1016.6 |
| 20260502233458 | 47 | 295 | 3.5 | 6.1 | 0.00 | 0.01 | 0.00 | 30 | 1016.5 |
| 20260502232959 | 48 | 329 | 2.6 | 3.5 | 0.00 | 0.01 | 0.00 | 30 | 1016.4 |
| 20260502232458 | 48 | 321 | 2.6 | 3.5 | 0.00 | 0.01 | 0.00 | 30 | 1016.4 |
| 20260502231958 | 49 | 280 | 2.6 | 3.5 | 0.00 | 0.01 | 0.00 | 30 | 1016.4 |
| 20260502231458 | 49 | 252 | 2.6 | 3.5 | 0.00 | 0.01 | 0.00 | 30 | 1016.5 |
| 20260502230959 | 48 | 323 | 3.5 | 6.1 | 0.00 | 0.01 | 0.00 | 30 | 1016.4 |
| 20260502230458 | 47 | 330 | 4.3 | 7.0 | 0.00 | 0.01 | 0.00 | 30 | 1016.3 |
| 20260502225959 | 47 | 332 | 4.3 | 7.0 | 0.00 | 0.01 | 0.00 | 30 | 1016.4 |
| 20260502225458 | 47 | 351 | 3.5 | 6.1 | 0.00 | 0.01 | 0.00 | 30 | 1016.4 |
| 20260502224958 | 47 | 340 | 3.5 | 6.1 | 0.00 | 0.01 | 0.00 | 30 | 1016.4 |
| 20260502224458 | 47 | 326 | 3.5 | 6.1 | 0.00 | 0.01 | 0.00 | 30 | 1016.6 |
| 20260502223958 | 47 | 316 | 4.3 | 7.0 | 0.00 | 0.01 | 0.00 | 30 | 1016.5 |
| 20260502223458 | 47 | 334 | 5.2 | 7.0 | 0.00 | 0.01 | 0.00 | 30 | 1016.5 |
| 20260502222957 | 47 | 337 | 5.2 | 7.0 | 0.00 | 0.01 | 0.00 | 30 | 1016.6 |
| 20260502222458 | 47 | 328 | 5.2 | 7.0 | 0.00 | 0.02 | 0.00 | 30 | 1016.5 |
| 20260502221959 | 48 | 324 | 6.1 | 8.7 | 0.00 | 0.02 | 0.00 | 30 | 1016.7 |
| 20260502220959 | 47 | 345 | 4.3 | 5.2 | 0.00 | 0.02 | 0.00 | 30 | 1016.4 |
| 20260502220459 | 47 | 343 | 3.5 | 5.2 | 0.00 | 0.02 | 0.00 | 30 | 1016.6 |
| 20260502215958 | 47 | 310 | 4.3 | 7.8 | 0.00 | 0.02 | 0.00 | 30 | 1016.6 |
| 20260502215458 | 48 | 324 | 6.1 | 7.8 | 0.00 | 0.02 | 0.00 | 30 | 1016.6 |
| 20260502214958 | 48 | 336 | 5.2 | 7.8 | 0.00 | 0.02 | 0.00 | 30 | 1016.7 |
| 20260502214458 | 48 | 321 | 5.2 | 9.6 | 0.00 | 0.02 | 0.00 | 30 | 1016.6 |
| 20260502213958 | 48 | 302 | 5.2 | 9.6 | 0.00 | 0.02 | 0.00 | 30 | 1016.5 |
| 20260502213458 | 48 | 298 | 3.5 | 8.7 | 0.00 | 0.02 | 0.00 | 30 | 1016.5 |
| 20260502212458 | 48 | 331 | 4.3 | 7.0 | 0.00 | 0.02 | 0.00 | 30 | 1016.5 |